Location: Reutlingen
(48.4911°N, 9.2587°E)
Time: 23:05:20
(UTC+01:00)

ISS - Visible Passes

Search period start: 22 November 2017 00:00
Search period end: 02 December 2017 00:00
Orbit: 402 x 407 km, 51.6° (Epoch: 23 November)

Date Brightness Start Highest point End Pass type
(mag) Time Alt. Az. Time Alt. Az. Time Alt. Az.
27 Nov -1.1 19:07:19 10° SSW 19:07:56 14° SSW 19:07:56 14° SSW visible
28 Nov -2.1 18:15:38 10° S 18:17:57 20° SE 18:17:57 20° SE visible
29 Nov -1.4 17:24:38 10° SSE 17:26:00 12° SE 17:27:22 10° ESE visible
29 Nov -2.1 18:58:41 10° SW 19:00:32 30° SW 19:00:32 30° SW visible
30 Nov -3.0 18:06:35 10° SW 18:09:39 38° SSE 18:10:23 33° ESE visible
30 Nov -0.3 19:42:48 10° W 19:43:02 12° W 19:43:02 12° W visible
01 Dec -2.2 17:14:43 10° SSW 17:17:25 24° SE 17:20:07 10° E visible
01 Dec -2.9 18:50:20 10° WSW 18:52:49 48° W 18:52:49 48° W visible
